Weather History for Pinedale, WY

Change the Weather History Date:

Wednesday, January 1, 2014

  Actual Average (KBPI) Record (KBPI)
Temperature  
Mean Temperature 17 °F 11 °F  
Max Temperature 28 °F 26 °F 45 °F (1981)
Min Temperature 6 °F -2 °F -31 °F (2011)
Degree Days  
Heating Degree Days 48 54  
Month to date heating degree days 54  
Since 1 July heating degree days 4493  
Cooling Degree Days 0 0  
Month to date cooling degree days 0  
Year to date cooling degree days 0  
Moisture  
Dew Point 13 °F    
Average Humidity 80    
Maximum Humidity 100    
Minimum Humidity 59    
Precipitation  
Precipitation 0.00 in 0.01 in 0.09 in (2005)
Month to date precipitation 0.01  
Year to date precipitation 0.01  
Sea Level Pressure  
Sea Level Pressure 30.22 in    
Wind  
Wind Speed 11 mph (WNW)    
Max Wind Speed 20 mph    
Max Gust Speed 22 mph    
Visibility 10 miles    
Events      
T = Trace of Precipitation, MM = Missing Value Source: NWS Daily Summary

Daily Weather History Graph

Daily Weather History Graph

Search for Another Location

Airport:

Trip Planner

Search our weather history database for the weather conditions in past years. The results will help you decide how hot, cold, wet, or windy it might be!

Date:

Astronomy

Jan. 01, 2014 Rise Set
Actual Time 7:49 AM MST 4:56 PM MST
Civil Twilight 7:17 AM MST 5:28 PM MST
Nautical Twilight 6:42 AM MST 6:03 PM MST
Astronomical Twilight 6:07 AM MST 6:38 PM MST
Moon 7:41 AM MST (1/1) 5:47 PM MST (1/1)
Length of Visible Light 10h 10m
Length of Day
9h 06m
New Moon, 0% of the Moon is Illuminated
Jan 1
New Moon
Jan 7
First Quarter
Jan 15
Full
Jan 23
Last Quarter
Jan 30
New

Hourly Weather History & Observations

Time (MST) Temp. Windchill Dew Point Humidity Pressure Visibility Wind Dir Wind Speed Gust Speed Precip Events Conditions
12:15 AM 24.8 °F - 24.8 °F 100% 30.05 in 10.0 mi Calm Calm - N/A   Mostly Cloudy
12:35 AM 21.2 °F 9.5 °F 21.2 °F 100% 30.05 in 10.0 mi NW 11.5 mph - N/A   Scattered Clouds
12:55 AM 23.0 °F 8.3 °F 23.0 °F 100% 30.05 in 10.0 mi WNW 19.6 mph - N/A   Scattered Clouds
1:15 AM 23.0 °F 9.2 °F 21.2 °F 93% 30.06 in 10.0 mi WNW 17.3 mph - N/A   Scattered Clouds
1:35 AM 23.0 °F 10.1 °F 21.2 °F 93% 30.07 in 10.0 mi WNW 15.0 mph - N/A   Clear
1:55 AM 21.2 °F 8.3 °F 19.4 °F 93% 30.08 in 10.0 mi West 13.8 mph - N/A   Clear
2:15 AM 21.2 °F 8.9 °F 17.6 °F 86% 30.09 in 10.0 mi WNW 12.7 mph - N/A   Clear
2:35 AM 17.6 °F 4.3 °F 14.0 °F 86% 30.09 in 10.0 mi WNW 12.7 mph - N/A   Clear
2:55 AM 17.6 °F 3.7 °F 15.8 °F 93% 30.11 in 10.0 mi WNW 13.8 mph - N/A   Clear
3:15 AM 17.6 °F 3.7 °F 14.0 °F 86% 30.11 in 10.0 mi WNW 13.8 mph - N/A   Clear
3:35 AM 17.6 °F 2.7 °F 14.0 °F 86% 30.12 in 10.0 mi WNW 16.1 mph - N/A   Clear
3:55 AM 17.6 °F 3.2 °F 14.0 °F 86% 30.13 in 10.0 mi NW 15.0 mph - N/A   Clear
4:15 AM 15.8 °F 3.4 °F 14.0 °F 93% 30.14 in 10.0 mi NNW 10.4 mph - N/A   Clear
4:35 AM 14.0 °F 0.5 °F 12.2 °F 93% 30.14 in 10.0 mi NNW 11.5 mph - N/A   Clear
4:55 AM 14.0 °F 2.9 °F 12.2 °F 93% 30.15 in 10.0 mi NW 8.1 mph - N/A   Clear
5:15 AM 12.2 °F 1.7 °F 10.4 °F 92% 30.16 in 10.0 mi WNW 6.9 mph - N/A   Clear
5:35 AM 12.2 °F 2.9 °F 10.4 °F 92% 30.17 in 10.0 mi NNW 5.8 mph - N/A   Clear
5:55 AM 12.2 °F -1.8 °F 8.6 °F 85% 30.18 in 10.0 mi NW 11.5 mph - N/A   Clear
6:15 AM 10.4 °F 0.8 °F 8.6 °F 92% 30.18 in 10.0 mi WNW 5.8 mph - N/A   Clear
6:35 AM 10.4 °F -1.5 °F 8.6 °F 92% 30.19 in 10.0 mi WNW 8.1 mph - N/A   Scattered Clouds
6:55 AM 8.6 °F -5.5 °F 8.6 °F 100% 30.19 in 10.0 mi NW 10.4 mph - N/A   Scattered Clouds
7:15 AM 6.8 °F -8.6 °F 5.0 °F 92% 30.19 in 10.0 mi West 11.5 mph - N/A   Scattered Clouds
7:35 AM 10.4 °F -5.4 °F 8.6 °F 92% 30.19 in 10.0 mi WNW 13.8 mph - N/A   Mostly Cloudy
7:55 AM 8.6 °F -4.7 °F 6.8 °F 92% 30.21 in 10.0 mi WNW 9.2 mph - N/A   Mostly Cloudy
8:15 AM 8.6 °F -4.7 °F 8.6 °F 100% 30.22 in 10.0 mi WNW 9.2 mph - N/A   Mostly Cloudy
8:35 AM 12.2 °F -1.8 °F 10.4 °F 92% 30.22 in 10.0 mi West 11.5 mph - N/A   Mostly Cloudy
8:55 AM 14.0 °F 2.0 °F 12.2 °F 93% 30.24 in 10.0 mi West 9.2 mph - N/A   Mostly Cloudy
9:15 AM 17.6 °F 7.3 °F 14.0 °F 86% 30.24 in 10.0 mi West 8.1 mph - N/A   Scattered Clouds
9:35 AM 21.2 °F 10.9 °F 14.0 °F 74% 30.25 in 10.0 mi West 9.2 mph - N/A   Clear
9:55 AM 21.2 °F 9.5 °F 14.0 °F 74% 30.25 in 10.0 mi WNW 11.5 mph - N/A   Clear
10:15 AM 21.2 °F 7.8 °F 14.0 °F 74% 30.26 in 10.0 mi WNW 15.0 mph - N/A   Clear
10:35 AM 23.0 °F 9.6 °F 15.8 °F 74% 30.26 in 10.0 mi NW 16.1 mph - N/A   Clear
10:55 AM 24.8 °F 12.4 °F 17.6 °F 74% 30.26 in 10.0 mi NW 15.0 mph - N/A   Clear
11:15 AM 26.6 °F 13.8 °F 17.6 °F 69% 30.26 in 10.0 mi NW 17.3 mph - N/A   Clear
11:35 AM 26.6 °F 14.7 °F 17.6 °F 69% 30.26 in 10.0 mi NW 15.0 mph - N/A   Clear
11:55 AM 26.6 °F 13.4 °F 17.6 °F 69% 30.26 in 10.0 mi NW 18.4 mph 21.9 mph N/A   Clear
12:15 PM 26.6 °F 13.1 °F 17.6 °F 69% 30.26 in 10.0 mi NW 19.6 mph - N/A   Clear
12:35 PM 26.6 °F 13.8 °F 17.6 °F 69% 30.25 in 10.0 mi NW 17.3 mph - N/A   Clear
12:55 PM 28.4 °F 16.6 °F 17.6 °F 64% 30.24 in 10.0 mi WNW 16.1 mph 20.7 mph N/A   Clear
1:15 PM 28.4 °F 16.6 °F 17.6 °F 64% 30.24 in 10.0 mi WNW 16.1 mph - N/A   Clear
1:35 PM 28.4 °F 16.6 °F 17.6 °F 64% 30.24 in 10.0 mi WNW 16.1 mph - N/A   Clear
1:55 PM 28.4 °F 17.0 °F 17.6 °F 64% 30.23 in 10.0 mi NW 15.0 mph - N/A   Clear
2:15 PM 28.4 °F 17.5 °F 15.8 °F 59% 30.24 in 10.0 mi NW 13.8 mph 19.6 mph N/A   Clear
2:35 PM 28.4 °F 16.6 °F 17.6 °F 64% 30.24 in 10.0 mi NW 16.1 mph - N/A   Clear
2:55 PM 28.4 °F 16.6 °F 15.8 °F 59% 30.24 in 10.0 mi NW 16.1 mph - N/A   Clear
3:15 PM 28.4 °F 18.5 °F 15.8 °F 59% 30.25 in 10.0 mi NW 11.5 mph - N/A   Clear
3:35 PM 26.6 °F 15.2 °F 15.8 °F 64% 30.25 in 10.0 mi NW 13.8 mph - N/A   Clear
3:55 PM 26.6 °F 14.7 °F 14.0 °F 59% 30.26 in 10.0 mi WNW 15.0 mph - N/A   Clear
4:15 PM 26.6 °F 14.7 °F 14.0 °F 59% 30.26 in 10.0 mi WNW 15.0 mph - N/A   Clear
4:35 PM 23.0 °F 10.1 °F 14.0 °F 68% 30.25 in 10.0 mi WNW 15.0 mph - N/A   Clear
4:55 PM 21.2 °F 10.9 °F 14.0 °F 74% 30.26 in 10.0 mi West 9.2 mph - N/A   Clear
5:15 PM 19.4 °F 8.6 °F 12.2 °F 74% 30.26 in 10.0 mi WNW 9.2 mph - N/A   Clear
5:35 PM 17.6 °F 8.2 °F 12.2 °F 79% 30.26 in 10.0 mi WNW 6.9 mph - N/A   Clear
5:55 PM 17.6 °F 6.4 °F 10.4 °F 73% 30.26 in 10.0 mi NW 9.2 mph - N/A   Clear
6:15 PM 17.6 °F 7.3 °F 12.2 °F 79% 30.27 in 10.0 mi WSW 8.1 mph - N/A   Clear
6:35 PM 17.6 °F 6.4 °F 12.2 °F 79% 30.27 in 10.0 mi WSW 9.2 mph - N/A   Clear
6:55 PM 19.4 °F 10.4 °F 12.2 °F 74% 30.27 in 10.0 mi WNW 6.9 mph - N/A   Clear
7:15 PM 17.6 °F 5.7 °F 12.2 °F 79% 30.27 in 10.0 mi NW 10.4 mph - N/A   Clear
7:35 PM 19.4 °F 7.2 °F 12.2 °F 74% 30.27 in 10.0 mi WNW 11.5 mph - N/A   Clear
7:55 PM 17.6 °F 5.7 °F 12.2 °F 79% 30.27 in 10.0 mi WNW 10.4 mph - N/A   Clear
8:15 PM 14.0 °F 1.2 °F 10.4 °F 86% 30.27 in 10.0 mi WNW 10.4 mph - N/A   Clear
8:35 PM 17.6 °F 4.3 °F 10.4 °F 73% 30.27 in 10.0 mi WNW 12.7 mph - N/A   Clear
8:55 PM 14.0 °F 2.0 °F 10.4 °F 86% 30.27 in 10.0 mi NW 9.2 mph - N/A   Clear
9:15 PM 14.0 °F 8.2 °F 8.6 °F 79% 30.27 in 10.0 mi North 3.5 mph - N/A   Clear
9:35 PM 12.2 °F -0.2 °F 8.6 °F 85% 30.27 in 10.0 mi NNW 9.2 mph - N/A   Clear
9:55 PM 10.4 °F -3.3 °F 5.0 °F 79% 30.27 in 10.0 mi NNW 10.4 mph - N/A   Clear
10:15 PM 10.4 °F -1.5 °F 5.0 °F 79% 30.28 in 10.0 mi NW 8.1 mph - N/A   Clear
10:35 PM 10.4 °F - 5.0 °F 79% 30.29 in 10.0 mi Calm Calm - N/A   Clear
10:55 PM 10.4 °F - 5.0 °F 79% 30.29 in 10.0 mi Calm Calm - N/A   Scattered Clouds
11:15 PM 10.4 °F - 6.8 °F 85% 30.29 in 10.0 mi Calm Calm - N/A   Mostly Cloudy
11:35 PM 12.2 °F - 8.6 °F 85% 30.29 in 10.0 mi Calm Calm - N/A   Scattered Clouds
11:55 PM 12.2 °F - 6.8 °F 79% 30.29 in 10.0 mi Calm Calm - N/A   Clear